Weather History for Rotterdam, Netherlands

Change the Weather History Date:

Wednesday, April 30, 2014

  Actual Average Record
Temperature  
Mean Temperature 54 °F -  
Max Temperature 58 °F 62 °F 71 °F (2004)
Min Temperature 49 °F 46 °F 37 °F (2006)
Degree Days  
Heating Degree Days 12    
Growing Degree Days 4 (Base 50)    
Moisture  
Dew Point 50 °F    
Average Humidity 92    
Maximum Humidity 100    
Minimum Humidity 77    
Precipitation  
Precipitation 0.00 in - - ()
Sea Level Pressure  
Sea Level Pressure 29.88 in    
Wind  
Wind Speed 4 mph ()    
Max Wind Speed 9 mph    
Max Gust Speed -    
Visibility 2.4 miles    
Events      
Averages and records for this station are not official NWS values.
T = Trace of Precipitation, MM = Missing Value Source: Averaged Metar Reports

Daily Weather History Graph

Daily Weather History Graph

Search for Another Location

Airport:

Trip Planner

Search our weather history database for the weather conditions in past years. The results will help you decide how hot, cold, wet, or windy it might be!

Date:

Astronomy

Apr. 30, 2014 Rise Set
Actual Time 6:14 AM CEST 9:05 PM CEST
Civil Twilight 5:36 AM CEST 9:43 PM CEST
Nautical Twilight 4:46 AM CEST 10:33 PM CEST
Astronomical Twilight 3:45 AM CEST 11:36 PM CEST
Moon 7:02 AM CEST (4/30) 10:34 PM CEST (4/30)
Length of Visible Light 16h 07m
Length of Day
14h 50m
New Moon, 2% of the Moon is Illuminated
Apr 30
New Moon
May 7
First Quarter
May 14
Full
May 21
Last Quarter
May 28
New

Hourly Weather History & Observations

Time (CEST) Temp. Dew Point Humidity Pressure Visibility Wind Dir Wind Speed Gust Speed Precip Events Conditions
12:00 AM 50 °F 49 °F 95% 29.89 in 2 mi West 2.2 mph - -   Mist
12:25 AM 50.0 °F 48.2 °F 94% 29.89 in 1.6 mi Variable 1.2 mph - N/A   Overcast
12:55 AM 50.0 °F 50.0 °F 100% 29.89 in 1.6 mi Variable 2.3 mph - N/A   Overcast
1:00 AM 50 °F 49 °F 97% 29.89 in 2 mi NW 2.2 mph - -   Mist
1:25 AM 51.8 °F 50.0 °F 94% 29.86 in 1.7 mi Variable 2.3 mph - N/A   Overcast
1:55 AM 51.8 °F 50.0 °F 94% 29.86 in 1.5 mi NNW 4.6 mph - N/A   Overcast
2:00 AM 51 °F 50 °F 95% 29.88 in 1 mi NNW 4.5 mph - -   Mist
2:25 AM 50.0 °F 50.0 °F 100% 29.86 in 1.4 mi North 3.5 mph - N/A   Overcast
2:55 AM 51.8 °F 50.0 °F 94% 29.86 in 1.2 mi Variable 2.3 mph - N/A   Overcast
3:00 AM 51 °F 50 °F 97% 29.88 in 1 mi North 2.2 mph - -   Mist
3:25 AM 51.8 °F 50.0 °F 94% 29.86 in 1.4 mi Variable 1.2 mph - N/A   Overcast
3:55 AM 51.8 °F 50.0 °F 94% 29.86 in 1.6 mi North 3.5 mph - N/A   Overcast
4:00 AM 51 °F 50 °F 97% 29.87 in 1 mi NNW 2.2 mph - -   Mist
4:25 AM 51.8 °F 50.0 °F 94% 29.86 in - Variable 2.3 mph - N/A   Overcast
4:55 AM 51.8 °F 50.0 °F 94% 29.86 in - Variable 2.3 mph - N/A   Overcast
5:00 AM 51 °F 50 °F 96% 29.87 in 2 mi NNW 2.2 mph - -   Mist
5:25 AM 51.8 °F 50.0 °F 94% 29.86 in 1.7 mi NNW 3.5 mph - N/A   Overcast
5:55 AM 51.8 °F 50.0 °F 94% 29.86 in 1.5 mi NW 3.5 mph - N/A   Overcast
6:00 AM 51 °F 51 °F 98% 29.87 in 2 mi NW 2.2 mph - -   Mist
6:25 AM 51.8 °F 50.0 °F 94% 29.86 in 1.4 mi NW 3.5 mph - N/A   Overcast
6:55 AM 51.8 °F 50.0 °F 94% 29.86 in 1.3 mi Variable 2.3 mph - N/A   Overcast
7:00 AM 51 °F 50 °F 97% 29.88 in 2 mi WNW 2.2 mph - -   Mist
7:25 AM 51.8 °F 50.0 °F 94% 29.86 in 1.7 mi West 3.5 mph - N/A   Overcast
7:55 AM 51.8 °F 50.0 °F 94% 29.86 in 1.3 mi West 5.8 mph - N/A   Overcast
8:00 AM 51 °F 51 °F 98% 29.88 in 2 mi West 4.5 mph - -   Mist
8:25 AM 51.8 °F 50.0 °F 94% 29.86 in 1.1 mi WNW 5.8 mph - N/A   Overcast
8:55 AM 51.8 °F 51.8 °F 100% 29.86 in 0.9 mi West 5.8 mph - N/A   Overcast
9:00 AM 51 °F 51 °F 99% 29.89 in 1 mi West 6.7 mph - -   Mist
9:25 AM 51.8 °F 51.8 °F 100% 29.89 in 1.2 mi West 5.8 mph - N/A   Overcast
9:55 AM 51.8 °F 51.8 °F 100% 29.89 in 1.6 mi West 4.6 mph - N/A   Overcast
10:00 AM 52 °F 51 °F 95% 29.89 in 2 mi WSW 4.5 mph - -   Mist
10:25 AM 51.8 °F 51.8 °F 100% 29.89 in 1.4 mi West 4.6 mph - N/A   Overcast
10:55 AM 53.6 °F 51.8 °F 94% 29.89 in 1.5 mi West 5.8 mph - N/A   Overcast
11:00 AM 53 °F 52 °F 95% 29.90 in 1 mi West 6.7 mph - -   Mist
11:25 AM 53.6 °F 51.8 °F 94% 29.89 in - West 5.8 mph - N/A   Overcast
11:55 AM 55.4 °F 51.8 °F 88% 29.89 in - West 6.9 mph - N/A   Overcast
12:00 PM 55 °F 51 °F 84% 29.91 in 3 mi West 6.7 mph - -   Mist
12:25 PM 55.4 °F 51.8 °F 88% 29.89 in - WNW 4.6 mph - N/A   Overcast
12:55 PM 55.4 °F 51.8 °F 88% 29.89 in 3.7 mi West 5.8 mph - N/A   Overcast
1:00 PM 55 °F 52 °F 86% 29.91 in 3 mi West 6.7 mph - -   Mist
1:25 PM 55.4 °F 51.8 °F 88% 29.89 in 3.7 mi WNW 5.8 mph - N/A   Overcast
1:55 PM 57.2 °F 51.8 °F 82% 29.89 in 3.7 mi West 5.8 mph - N/A   Overcast
2:00 PM 57 °F 53 °F 81% 29.91 in 4 mi West 6.7 mph - -   Mist
2:25 PM 57.2 °F 51.8 °F 82% 29.89 in 3.1 mi West 6.9 mph - N/A   Overcast
2:55 PM 59.0 °F 53.6 °F 82% 29.89 in 3.7 mi West 6.9 mph - N/A   Overcast
3:00 PM 58 °F 53 °F 78% 29.91 in 3 mi West 6.7 mph - -   Mist
3:25 PM 57.2 °F 51.8 °F 82% 29.89 in 3.7 mi West 8.1 mph - N/A   Overcast
3:55 PM 55.4 °F 51.8 °F 88% 29.89 in 3.1 mi West 8.1 mph - N/A   Overcast
4:00 PM 56 °F 51 °F 77% 29.91 in 3 mi West 8.9 mph - -   Mist
4:25 PM 55.4 °F 51.8 °F 88% 29.89 in 3.7 mi West 9.2 mph - N/A   Overcast
4:55 PM 53.6 °F 50.0 °F 88% 29.89 in 3.7 mi West 6.9 mph - N/A   Overcast
5:00 PM 54 °F 50 °F 82% 29.90 in 4 mi West 6.7 mph - -   Mist
5:25 PM 53.6 °F 51.8 °F 94% 29.89 in 3.1 mi West 6.9 mph - N/A   Overcast
5:55 PM 53.6 °F 50.0 °F 88% 29.89 in 3.1 mi WSW 6.9 mph - N/A   Overcast
6:00 PM 53 °F 50 °F 87% 29.89 in 3 mi WSW 6.7 mph - -   Mist
6:25 PM 53.6 °F 50.0 °F 88% 29.89 in 3.1 mi WSW 6.9 mph - N/A   Overcast
6:55 PM 53.6 °F 50.0 °F 88% 29.89 in 3.7 mi West 5.8 mph - N/A   Overcast
7:00 PM 53 °F 50 °F 84% 29.89 in 3 mi West 6.7 mph - -   Mist
7:25 PM 51.8 °F 50.0 °F 94% 29.86 in 3.1 mi West 5.8 mph - N/A   Overcast
7:55 PM 51.8 °F 50.0 °F 94% 29.89 in 3.7 mi WNW 5.8 mph - N/A   Overcast
8:00 PM 51 °F 49 °F 89% 29.89 in 3 mi West 6.7 mph - -   Mist
8:25 PM 51.8 °F 48.2 °F 88% 29.89 in 3.7 mi WNW 5.8 mph - N/A   Overcast
8:55 PM 50.0 °F 48.2 °F 94% 29.89 in 3.7 mi West 5.8 mph - N/A   Overcast
9:00 PM 51 °F 49 °F 88% 29.90 in 3 mi WNW 4.5 mph - -   Mist
9:25 PM 50.0 °F 48.2 °F 94% 29.89 in 2.8 mi NW 4.6 mph - N/A   Overcast
9:55 PM 50.0 °F 48.2 °F 94% 29.89 in 2.8 mi WNW 3.5 mph - N/A   Overcast
10:00 PM 50 °F 48 °F 92% 29.91 in 3 mi West 4.5 mph - -   Mist
10:25 PM 50.0 °F 48.2 °F 94% 29.89 in 2.8 mi West 3.5 mph - N/A   Overcast
10:55 PM 50.0 °F 48.2 °F 94% 29.89 in 3.1 mi West 3.5 mph - N/A   Overcast
11:00 PM 50 °F 48 °F 89% 29.91 in 3 mi West 2.2 mph - -   Mist
11:25 PM 50.0 °F 48.2 °F 94% 29.89 in - West 3.5 mph - N/A   Overcast
11:55 PM 50.0 °F 48.2 °F 94% 29.89 in - West 4.6 mph - N/A   Overcast